Great Falls, MT

8:58 PM MDT on August 27, 2016 (GMT -0600)
Great Falls International

Weather History for KGTF - March, 2013

Change the Weather History Date:

Saturday, March 16, 2013

  Actual Average Record
Temperature  
Mean Temperature 39 °F 34 °F  
Max Temperature 55 °F 46 °F 68 °F (1994)
Min Temperature 22 °F 23 °F -12 °F (1943)
Degree Days  
Heating Degree Days 26 31  
Month to date heating degree days 450 529  
Since 1 July heating degree days 5263 6034  
Cooling Degree Days 0 0  
Month to date cooling degree days 0 0  
Year to date cooling degree days 0 0  
Moisture  
Dew Point 22 °F    
Average Humidity 61    
Maximum Humidity 92    
Minimum Humidity 30    
Precipitation  
Precipitation 0.00 in 0.03 in 0.51 in (1981)
Month to date precipitation 0.11 0.41  
Year to date precipitation 1.15 1.39  
Snow  
Snow 0.00 in 0.40 in 5.70 in (1989)
Month to date snowfall 2.0 6.1  
Since 1 July snowfall 57.8 46.1  
Snow Depth 0.00 in    
Sea Level Pressure  
Sea Level Pressure 29.94 in    
Wind  
Wind Speed 7 mph (East)    
Max Wind Speed 23 mph    
Max Gust Speed 28 mph    
Visibility 8 miles    
Events      
T = Trace of Precipitation, MM = Missing Value Source: NWS Daily Summary

Daily Weather History Graph

Daily Weather History Graph

Search for Another Location

Airport or City:

Trip Planner

Search our weather history database for the weather conditions in past years. The results will help you decide how hot, cold, wet, or windy it might be!

Date:

Astronomy

Mar. 16, 2013 Rise Set
Actual Time 7:35 AM MDT 7:33 PM MDT
Civil Twilight 7:05 AM MDT 8:03 PM MDT
Nautical Twilight 6:29 AM MDT 8:39 PM MDT
Astronomical Twilight 5:52 AM MDT 9:16 PM MDT
Moon 9:47 AM MDT (3/16) 12:09 AM MDT (3/16)
Length of Visible Light 12h 58m
Length of Day
11h 57m
Waxing Crescent, 23% of the Moon is Illuminated
Mar 16
Waxing Crescent
Mar 19
First Quarter
Mar 27
Full
Apr 2
Last Quarter
Apr 10
New

Hourly Weather History & Observations

Time (MDT) Temp. Windchill Dew Point Humidity Pressure Visibility Wind Dir Wind Speed Gust Speed Precip Events Conditions
12:10 AM 24.8 °F 16.1 °F 19.4 °F 80% 30.09 in 10.0 mi North 8.1 mph - N/A   Overcast
12:19 AM 23.0 °F 11.7 °F 17.6 °F 80% 30.08 in 10.0 mi NNE 11.5 mph - N/A   Overcast
12:53 AM 23.0 °F 12.4 °F 18.0 °F 81% 30.14 in 10.0 mi NE 10.4 mph - N/A   Overcast
1:53 AM 21.9 °F 12.5 °F 18.0 °F 85% 30.13 in 10.0 mi NE 8.1 mph - N/A   Overcast
2:53 AM 23.0 °F 14.7 °F 19.0 °F 85% 30.11 in 9.0 mi NE 6.9 mph - N/A   Overcast
3:53 AM 21.9 °F 15.7 °F 19.0 °F 89% 30.12 in 3.0 mi East 4.6 mph - N/A   Overcast
4:53 AM 23.0 °F 17.0 °F 19.0 °F 85% 30.10 in 7.0 mi NE 4.6 mph - N/A   Overcast
5:53 AM 23.0 °F 17.0 °F 19.9 °F 88% 30.09 in 6.0 mi East 4.6 mph - N/A   Overcast
6:19 AM 23.0 °F 15.8 °F 19.4 °F 86% 29.97 in 2.0 mi ESE 5.8 mph - N/A   Overcast
6:34 AM 23.0 °F 15.8 °F 19.4 °F 86% 29.96 in 0.8 mi East 5.8 mph - N/A   Overcast
6:53 AM 23.0 °F 15.8 °F 19.9 °F 88% 30.07 in 2.0 mi ESE 5.8 mph - N/A   Overcast
7:20 AM 23.0 °F 17.0 °F 19.4 °F 86% 29.94 in 4.0 mi East 4.6 mph - N/A   Overcast
7:53 AM 23.0 °F 17.0 °F 19.9 °F 88% 30.06 in 4.0 mi East 4.6 mph - N/A   Overcast
8:53 AM 24.1 °F 19.7 °F 19.9 °F 84% 30.05 in 5.0 mi ENE 3.5 mph - N/A   Overcast
9:02 AM 24.8 °F 19.1 °F 21.2 °F 86% 29.92 in 6.0 mi ENE 4.6 mph - N/A   Overcast
9:53 AM 26.1 °F 21.9 °F 19.9 °F 78% 30.06 in 6.0 mi ENE 3.5 mph - N/A   Haze
10:45 AM 28.4 °F 21.2 °F 21.2 °F 74% 29.91 in 9.0 mi East 6.9 mph - N/A   Scattered Clouds
10:53 AM 28.9 °F 22.8 °F 21.9 °F 75% 30.06 in 8.0 mi East 5.8 mph - N/A   Partly Cloudy
11:53 AM 34.0 °F 29.8 °F 24.1 °F 67% 30.04 in 10.0 mi ENE 4.6 mph - N/A   Scattered Clouds
12:53 PM 39.9 °F 35.8 °F 25.0 °F 55% 29.99 in 10.0 mi East 5.8 mph - N/A   Mostly Cloudy
1:53 PM 45.0 °F - 27.0 °F 49% 29.94 in 10.0 mi Calm Calm - N/A   Overcast
2:53 PM 46.9 °F - 28.0 °F 48% 29.89 in 10.0 mi East 4.6 mph - N/A   Overcast
3:53 PM 50.0 °F - 28.0 °F 43% 29.84 in 10.0 mi Calm Calm - N/A   Mostly Cloudy
4:22 PM 55.4 °F - 23.0 °F 29% 29.74 in 10.0 mi WSW 16.1 mph 24.2 mph N/A   Clear
4:53 PM 52.0 °F - 21.9 °F 31% 29.80 in 10.0 mi WSW 18.4 mph 26.5 mph N/A   Partly Cloudy
5:53 PM 52.0 °F - 23.0 °F 32% 29.78 in 10.0 mi WSW 18.4 mph - N/A   Mostly Cloudy
6:53 PM 48.9 °F - 23.0 °F 36% 29.77 in 10.0 mi WSW 10.4 mph - N/A   Scattered Clouds
7:53 PM 44.1 °F 38.1 °F 24.1 °F 45% 29.76 in 10.0 mi SW 11.5 mph - N/A   Clear
8:53 PM 41.0 °F 34.3 °F 24.1 °F 51% 29.75 in 10.0 mi WSW 11.5 mph - N/A   Clear
9:53 PM 39.9 °F 33.9 °F 24.1 °F 53% 29.73 in 10.0 mi SSW 9.2 mph - N/A   Clear
10:53 PM 41.0 °F 36.4 °F 25.0 °F 53% 29.69 in 10.0 mi SSW 6.9 mph - N/A   Mostly Cloudy
11:53 PM 42.1 °F 36.1 °F 25.0 °F 51% 29.64 in 10.0 mi SW 10.4 mph - N/A   Mostly Cloudy